Abha, Saudi Arabia

10:05 PM AST on July 21, 2019 (GMT +0300)
Abha

Weather History for OEAB - May, 2019

Change the Weather History Date:

Sunday, May 5, 2019

  Actual Average Record
Temperature  
Mean Temperature 76 °F -  
Max Temperature 86 °F 81 °F 86 °F (2019)
Min Temperature 66 °F 58 °F 53 °F (1998)
Cooling Degree Days 11    
Growing Degree Days 26 (Base 50)    
Moisture  
Dew Point 39 °F    
Average Humidity 29    
Maximum Humidity 50    
Minimum Humidity 7    
Precipitation  
Precipitation 0.00 in - - ()
Sea Level Pressure  
Sea Level Pressure 30.30 in    
Wind  
Wind Speed 7 mph ()    
Max Wind Speed 15 mph    
Max Gust Speed 23 mph    
Visibility 2.8 miles    
Events Rain , Thunderstorm    
Averages and records for this station are not official NWS values.
T = Trace of Precipitation, MM = Missing Value Source: Averaged Metar Reports

Daily Weather History Graph

Daily Weather History Graph

Search for Another Location

Airport or City:

Astronomy

May. 05, 2019 Rise Set
Actual Time 5:40 AM AST 6:31 PM AST
Civil Twilight 5:17 AM AST 6:54 PM AST
Nautical Twilight 4:50 AM AST 7:21 PM AST
Astronomical Twilight 4:23 AM AST 7:49 PM AST
Moon 6:03 AM AST (5/5) 7:05 PM AST (5/5)
Length of Visible Light 13h 37m
Length of Day
12h 51m
New Moon, 0% of the Moon is Illuminated
May 5
New Moon
May 12
First Quarter
May 19
Full
May 26
Last Quarter
Jun 3
New

Hourly Weather History & Observations

Time (AST) Temp. Dew Point Humidity Pressure Visibility Wind Dir Wind Speed Gust Speed Precip Events Conditions
12:00 AM 69 °F 39 °F 22%  in 2 mi NNE 8.1 mph - -   Widespread Dust
12:00 AM 69.8 °F 39.2 °F 33% 30.30 in 2.2 mi NNE 8.1 mph - N/A   Clear
1:00 AM 69.8 °F 41.0 °F 35% 30.30 in 1.9 mi NNE 6.9 mph - N/A Rain Rain
2:00 AM 66.2 °F 46.4 °F 49% 30.27 in 1.9 mi North 5.8 mph - N/A   Partly Cloudy
3:00 AM 66.2 °F 42.8 °F 43% 30.27 in 1.9 mi NNW 6.9 mph - N/A   Clear
4:00 AM 66.2 °F 41.0 °F 40% 30.27 in 2.5 mi NNW 4.6 mph - N/A   Clear
5:00 AM 66.2 °F 39.2 °F 37% 30.30 in 2.5 mi NNW 6.9 mph - N/A   Clear
6:00 AM 66.2 °F 35.6 °F 32% 30.30 in 1.7 mi North 5.8 mph - N/A   Clear
7:00 AM 68.0 °F 37.4 °F 33% 30.33 in 0.9 mi North 11.5 mph - N/A   Clear
8:00 AM 69.8 °F 37.4 °F 31% 30.33 in 0.9 mi NNE 13.8 mph - N/A   Clear
9:00 AM 75.2 °F 35.6 °F 24% 30.36 in 1.2 mi East 12.7 mph - N/A   Clear
10:00 AM 80.6 °F 33.8 °F 18% 30.36 in 1.6 mi ENE 12.7 mph - N/A   Clear
11:00 AM 82.4 °F 33.8 °F 17% 30.33 in 2.5 mi East 10.4 mph - N/A   Scattered Clouds
12:00 PM 84.2 °F 30.2 °F 14% 30.30 in 3.1 mi ESE 10.4 mph 23.0 mph N/A   Scattered Clouds
1:00 PM 86.0 °F 32.0 °F 14% 30.30 in 3.1 mi WSW 10.4 mph - N/A   Scattered Clouds
2:00 PM 84.2 °F 30.2 °F 14% 30.27 in 3.1 mi SSW 9.2 mph - N/A   Scattered Clouds
3:00 PM 85 °F 32 °F 7%  in 3 mi SSW 9.2 mph - -   Widespread Dust
3:00 PM 86.0 °F 32.0 °F 14% 30.24 in 3.1 mi SSW 9.2 mph - N/A   Partly Cloudy
4:00 PM 73.4 °F 46.4 °F 38% 30.27 in 3.1 mi SSE 15.0 mph - N/A Rain , Thunderstorm Thunderstorms and Rain
5:00 PM 77.0 °F 42.8 °F 29% 30.27 in 4.3 mi NNE 5.8 mph - N/A   Partly Cloudy
6:00 PM 75.2 °F 41.0 °F 29% 30.30 in 4.3 mi NNE 9.2 mph - N/A   Partly Cloudy
7:00 PM 73.4 °F 41.0 °F 31% 30.30 in 4.3 mi NNE 3.5 mph - N/A   Partly Cloudy
8:00 PM 73.4 °F 42.8 °F 33% 30.30 in 5.6 mi East 4.6 mph - N/A   Unknown
9:00 PM 73.4 °F 42.8 °F 33% 30.30 in - South 4.6 mph - N/A   Clear
10:00 PM 73.4 °F 41.0 °F 31% 30.33 in - Calm Calm - N/A   Clear
11:00 PM 73.4 °F 53.6 °F 50% 30.33 in 6.2 mi SE 3.5 mph - N/A   Scattered Clouds